Printer-friendly version
Follow the MPC on Twitter Follow the MPC on Facebook The MPC blog
Minor Planet Center

MPEC 2005-E13 : 2005 CZ36

The following Minor Planet Electronic Circular may be linked-to from your own Web pages, but must not otherwise be redistributed electronically.

A form allowing access to any MPEC is at the bottom of this page.


Read MPEC 2005-E12 Read MPEC 2005-E14


M.P.E.C. 2005-E13                                Issued 2005 Mar. 3, 06:39 UT

     The Minor Planet Electronic Circulars contain information on unusual
         minor planets and routine data on comets.  They are published
   on behalf of Commission 20 of the International Astronomical Union by the
          Minor Planet Center, Smithsonian Astrophysical Observatory,
                          Cambridge, MA 02138, U.S.A.

                  Supported in part by the Brinson Foundation
             Prepared using the Tamkin Foundation Computer Network

                              MPC@CFA.HARVARD.EDU
          URL http://cfa-www.harvard.edu/iau/mpc.html  ISSN 1523-6714

                                   2005 CZ36

Additional Observations:
     K05C36Z 2C2005 02 27.96817 09 09 23.90 +32 41 41.0          19.8 V EE013012
     K05C36Z 2C2005 02 27.97211 09 09 23.66 +32 41 42.6          19.4 V EE013012
     K05C36Z 2C2005 02 27.97605 09 09 23.30 +32 41 47.6          20.3 V EE013012
     K05C36Z 2C2005 02 27.97999 09 09 22.83 +32 41 51.4          19.9 V EE013012
     K05C36Z 2C2005 02 27.99192 09 09 21.33 +32 42 03.5          19.3 V EE013012
     K05C36Z  C2005 03 02.87498 09 04 37.42 +33 24 44.4                 EE013J95
     K05C36Z  C2005 03 02.88067 09 04 36.98 +33 24 50.3                 EE013J95
     K05C36Z  C2005 03 02.88679 09 04 36.30 +33 24 55.3          19.6 R EE013J95
     K05C36Z  C2005 03 03.19706 09 04 06.20 +33 29 21.8          19.7 R EE013854
     K05C36Z  C2005 03 03.20274 09 04 05.72 +33 29 28.4          19.7 R EE013854
     K05C36Z  C2005 03 03.20841 09 04 05.11 +33 29 31.7          19.7 R EE013854

Observer details:
012 Uccle.  Observers T. Pauwels, P. De Cat.  0.85-m f/2.5 Schmidt + 3Kx2K CCD.
854 Sabino Canyon Observatory, Tucson.  Observer J. E. McGaha.  0.36-m f/10.0
    Schmidt-Cassegrain + CCD.
J95 Great Shefford.  Observer P. Birtwhistle.  0.30-m f/6.3 Schmidt-Cassegrain
    + CCD.

Orbital elements:
2005 CZ36                                                            PHA 0.038D
Epoch 2005 Feb. 19.0 TT = JDT 2453420.5                 MPC
M 316.32709              (2000.0)            P               Q
n   0.29549859     Peri.  139.08505     -0.22050010     +0.94377629
a   2.2323679      Node   116.83912     -0.95130735     -0.15232345
e   0.5766933      Incl.   16.02403     -0.21539273     -0.29340054
P   3.34           H   17.7           G   0.15
From 19 observations 2005 Feb. 6-Mar. 3.

Ephemeris:
2005 CZ36                a,e,i = 2.23, 0.58, 16                  q = 0.9450
Date    TT    R. A. (2000) Decl.     Delta      r     Elong.  Phase     V
2005 03 01    09 07.69   +32 57.4    0.933    1.838   145.7    17.7    19.8
2005 03 11    08 52.40   +35 06.8    0.927    1.761   132.9    24.4    19.9
2005 03 21    08 41.12   +36 34.2    0.937    1.682   120.9    30.5    20.0
2005 03 31    08 35.29   +37 24.1    0.954    1.602   110.2    35.8    20.1
2005 04 10    08 35.34   +37 43.7    0.972    1.521   100.8    40.3    20.1
2005 04 20    08 41.15   +37 38.7    0.986    1.439    92.6    44.2    20.2
2005 04 30    08 52.12   +37 12.4    0.992    1.359    85.6    47.7    20.1
2005 05 10    09 07.67   +36 24.6    0.987    1.279    79.7    50.9    20.1
2005 05 20    09 27.23   +35 13.2    0.970    1.203    74.7    54.2    20.0
2005 05 30    09 50.25   +33 33.9    0.940    1.132    70.7    57.7    19.9
2005 06 09    10 16.30   +31 20.4    0.897    1.068    67.6    61.5    19.8
2005 06 19    10 45.03   +28 24.1    0.841    1.015    65.4    65.6    19.7
2005 06 29    11 16.16   +24 34.2    0.776    0.975    64.2    70.0    19.5
2005 07 09    11 49.73   +19 35.6    0.705    0.951    64.1    74.1    19.4
2005 07 19    12 26.14   +13 10.2    0.634    0.945    65.2    77.3    19.3
2005 07 29    13 06.32   +05 01.3    0.571    0.959    67.9    78.7    19.1
2005 08 08    13 51.90   -04 52.9    0.524    0.990    72.4    77.4    19.0
2005 08 18    14 44.64   -15 48.8    0.504    1.037    78.5    73.1    18.8
2005 08 28    15 45.17   -26 04.4    0.516    1.095    85.2    66.8    18.8
2005 09 07    16 51.23   -33 47.2    0.561    1.163    91.1    60.1    18.9
2005 09 17    17 57.16   -38 09.3    0.636    1.236    95.1    54.1    19.2
2005 09 27    18 56.96   -39 37.8    0.734    1.314    97.2    49.2    19.5
2005 10 07    19 47.85   -39 09.5    0.849    1.394    97.5    45.3    19.8
2005 10 17    20 30.14   -37 33.4    0.980    1.475    96.5    42.2    20.1
2005 10 27    21 05.42   -35 21.5    1.122    1.556    94.5    39.5    20.5
2005 11 06    21 35.48   -32 51.9    1.274    1.637    91.7    37.3    20.8
2005 11 16    22 01.73   -30 14.8    1.434    1.717    88.2    35.2    21.1
2005 11 26    22 25.21   -27 35.6    1.601    1.795    84.3    33.2    21.4
2005 12 06    22 46.69   -24 57.4    1.772    1.872    80.0    31.2    21.6
2005 12 16    23 06.67   -22 21.8    1.946    1.947    75.4    29.3    21.9

Kyle E. Smalley              (C) Copyright 2005 MPC           M.P.E.C. 2005-E13

Read MPEC 2005-E12 Read MPEC 2005-E14


MPEC number:

Enter an MPEC number in one of the following forms:

  • 1997-B01 (the full form)
  • J97B01 (the packed version of the full form)
  • B01 (the abbreviated form)

Valid HTML 4.01!